Flag for Germany Weather past 2 weeks in Konstanz, Baden-Württemberg, Germany

Now
45 °F

Sprinkles. Overcast.


Feels Like: 41 °F
Forecast: 37 / 46 °F
Wind: 6 mph from Southwest

Location: Friedrichshafen Airport

Current Time: Mar 1, 2015 at 10:12:15 PM

Latest Report: Mar 1, 2015 at 9:50 PM


Visibility: N/A

Pressure: 29.80 "Hg

Humidity: 81%

Dew point: 39 °F

Location of KonstanzLocation

Historic Weather in Konstanz — Graph

°F

Konstanz temperature yesterday

Maximum temperature yesterday: 43 °F (at 2:50 PM)
Minimum temperature yesterday: 27 °F (at 11:57 PM)
Average temperature yesterday: 36 °F

Past Weeks' High & Low Weather Summary

 TemperatureHumidityPressure
High52 °F (Feb 20, 4:50 PM)100% (Feb 23, 5:20 AM)30.69 "Hg (Feb 23, 5:20 AM)
Low21 °F (Feb 20, 6:50 AM)29% (Feb 26, 4:50 PM)29.50 "Hg (Feb 21, 12:50 PM)
Average33 °F80%30.03 "Hg
* Reported Feb 14 8:20 PM — Mar 1 8:20 PM, Konstanz, Weather by CustomWeather, © 2015

Note: Actual official high and low records may vary slightly from our data, if they occured in-between our weather recording intervals... More about our weather records

Advertising

Konstanz weather history for previous 24 hours

 ConditionsComfort  
Time TempWeatherWind HumidityBarometerVisibility
8:20 PM
Sun, Mar 1
46 °FMostly cloudy.10 mph76%29.86 "HgN/A
7:50 PM45 °FMostly cloudy.6 mph81%29.86 "HgN/A
7:20 PM45 °FMostly cloudy.8 mph76%29.86 "HgN/A
6:50 PM45 °FLight rain. Overcast.8 mph81%29.86 "HgN/A
6:20 PM43 °FMostly cloudy.6 mph87%29.86 "HgN/A
5:50 PM45 °FBroken clouds.5 mph81%29.86 "HgN/A
5:20 PM45 °FRain showers. Partly sunny.5 mph76%29.86 "HgN/A
4:20 PM46 °FSprinkles. Partly sunny.8 mph71%29.83 "HgN/A
3:50 PM46 °FOvercast.5 mph71%29.83 "HgN/A
3:20 PM43 °FOvercast.No wind76%29.86 "HgN/A
2:50 PM43 °FMostly cloudy.3 mph76%29.86 "HgN/A
2:20 PM43 °FOvercast.5 mph76%29.86 "HgN/A
1:50 PM43 °FOvercast.3 mph76%29.86 "HgN/A
1:20 PM41 °FPartly sunny.2 mph81%29.89 "HgN/A
12:50 PM39 °FPartly sunny.2 mph81%29.89 "HgN/A
12:20 PM39 °FPartly sunny.2 mph81%29.92 "HgN/A
11:50 AM39 °FPartly sunny.3 mph81%29.89 "HgN/A
11:20 AM37 °FLow clouds.5 mph87%29.92 "HgN/A
10:50 AM37 °FSprinkles. Mostly cloudy.3 mph81%29.92 "HgN/A
10:20 AM36 °FSprinkles. Cloudy.3 mph93%29.92 "Hg5 mi
9:50 AM36 °FSprinkles. More clouds than sun.5 mph87%29.92 "Hg5 mi
9:20 AM34 °FLight rain. Fog.3 mph93%29.92 "Hg2 mi
8:50 AM32 °FLight rain. Ice fog.5 mph93%29.92 "Hg2 mi
8:20 AM34 °FLight rain. Fog.8 mph87%29.92 "Hg2 mi
7:50 AM34 °FLight rain. Fog.3 mph87%29.92 "Hg2 mi
7:20 AM34 °FLight rain. More clouds than sun.2 mph87%29.92 "Hg4 mi
6:50 AM32 °FIce fog.2 mph87%29.92 "Hg3 mi
6:20 AM32 °FIce fog.1 mph87%29.95 "Hg3 mi
5:50 AM30 °FIce fog.No wind93%29.92 "Hg3 mi
5:20 AM30 °FIce fog.1 mph93%29.92 "Hg2 mi
4:50 AM28 °FIce fog.No wind93%29.95 "Hg3 mi
4:20 AM28 °FIce fog.3 mph86%29.92 "Hg2 mi
3:50 AM27 °FIce fog.2 mph93%29.95 "Hg3 mi
3:20 AM27 °FIce fog.1 mph93%29.95 "Hg2 mi
2:50 AM27 °FIce fog.1 mph93%29.95 "Hg2 mi
2:20 AM27 °FIce fog.2 mph93%29.98 "Hg3 mi
1:55 AM27 °FChilly.2 mph93%29.98 "Hg2 mi
1:50 AM27 °FIce fog.2 mph93%29.98 "Hg1 mi
1:20 AM27 °FIce fog.2 mph93%29.98 "Hg2 mi
12:50 AM27 °FChilly.2 mph93%30.01 "Hg2 mi
12:20 AM27 °FChilly.No wind93%30.01 "Hg1 mi
11:57 PM
Sat, Feb 28
27 °FIce fog.2 mph93%30.01 "Hg2 mi
11:20 PM28 °FIce fog.5 mph93%30.04 "Hg2 mi
10:55 PM28 °FChilly.2 mph93%30.04 "Hg1 mi
10:20 PM30 °FChilly.No wind86%30.07 "Hg3 mi
Weather by CustomWeather, © 2015

See weather overviewHow to use our weather pages